Guadalajara Don Miguel, Mexico

5:01 PM CDT on July 25, 2017 (GMT -0500)
Guadalajara Don Miguel

Weather History for MMGL - January, 2013

Change the Weather History Date:

Thursday, January 10, 2013

  Actual Average Record
Temperature  
Mean Temperature 60 °F -  
Max Temperature 77 °F 74 °F 78 °F (1998)
Min Temperature 44 °F 39 °F 26 °F (1997)
Degree Days  
Heating Degree Days 4    
Growing Degree Days 10 (Base 50)    
Moisture  
Dew Point 46 °F    
Average Humidity 65    
Maximum Humidity 93    
Minimum Humidity 29    
Precipitation  
Precipitation 0.00 in - - ()
Sea Level Pressure  
Sea Level Pressure 30.12 in    
Wind  
Wind Speed 3 mph ()    
Max Wind Speed 10 mph    
Max Gust Speed -    
Visibility 8.7 miles    
Events      
Averages and records for this station are not official NWS values.
T = Trace of Precipitation, MM = Missing Value Source: Averaged Metar Reports

Daily Weather History Graph

Daily Weather History Graph

Search for Another Location

Airport or City:

Trip Planner

Search our weather history database for the weather conditions in past years. The results will help you decide how hot, cold, wet, or windy it might be!

Date:

Astronomy

Jan. 10, 2013 Rise Set
Actual Time 7:31 AM CST 6:30 PM CST
Civil Twilight 7:07 AM CST 6:54 PM CST
Nautical Twilight 6:40 AM CST 7:21 PM CST
Astronomical Twilight 6:13 AM CST 7:48 PM CST
Moon 6:14 AM CST (1/10) 5:38 PM CST (1/10)
Length of Visible Light 11h 46m
Length of Day
10h 58m
Waning Crescent, 2% of the Moon is Illuminated
Jan 10
Waning Crescent
Jan 11
New
Jan 18
First Quarter
Jan 26
Full
Feb 3
Last Quarter

Hourly Weather History & Observations

Time (CST) Temp. Windchill Dew Point Humidity Pressure Visibility Wind Dir Wind Speed Gust Speed Precip Events Conditions
12:44 AM 50.0 °F - 46.4 °F 87% 30.19 in 8.0 mi Calm Calm - N/A   Scattered Clouds
1:42 AM 51.8 °F - 46.4 °F 82% 30.18 in 10.0 mi SSE 3.5 mph - N/A   Scattered Clouds
2:41 AM 50.0 °F - 46.4 °F 87% 29.92 in 10.0 mi NW 3.5 mph - N/A   Scattered Clouds
3:42 AM 46.4 °F 45.2 °F 44.6 °F 93% 30.17 in 10.0 mi West 3.5 mph - N/A   Scattered Clouds
4:41 AM 46.4 °F - 44.6 °F 93% 30.16 in 8.0 mi Calm Calm - N/A   Clear
5:46 AM 44.6 °F 43.1 °F 42.8 °F 93% 29.94 in 10.0 mi South 3.5 mph - N/A   Clear
6:49 AM 44.6 °F - 42.8 °F 93% 30.19 in 10.0 mi Calm Calm - N/A   Clear
7:48 AM 44.6 °F - 42.8 °F 93% 30.22 in 7.0 mi Calm Calm - N/A   Clear
8:51 AM 53.6 °F - 48.2 °F 82% 30.07 in 5.0 mi Calm Calm - N/A   Clear
9:47 AM 59.0 °F - 50.0 °F 72% 30.28 in 7.0 mi Calm Calm - N/A   Clear
10:51 AM 64.4 °F - 50.0 °F 59% 30.27 in 7.0 mi NW 4.6 mph - N/A   Clear
11:47 AM 68.0 °F - 50.0 °F 52% 30.01 in 7.0 mi Calm Calm - N/A   Clear
12:47 PM 71.6 °F - 48.2 °F 43% 30.21 in 7.0 mi North 3.5 mph - N/A   Clear
1:51 PM 73.4 °F - 48.2 °F 41% 30.17 in 7.0 mi West 6.9 mph - N/A   Partly Cloudy
2:48 PM 75.2 °F - 46.4 °F 36% 29.88 in 8.0 mi SE 10.4 mph - N/A   Mostly Cloudy
3:45 PM 77.0 °F - 44.6 °F 32% 30.14 in 8.0 mi NNW 6.9 mph - N/A   Mostly Cloudy
4:49 PM 77.0 °F - 42.8 °F 29% 30.14 in 10.0 mi West 9.2 mph - N/A   Scattered Clouds
5:54 PM 75.2 °F - 42.8 °F 31% 29.93 in 10.0 mi NW 9.2 mph - N/A   Scattered Clouds
6:52 PM 68.0 °F - 42.8 °F 40% 30.16 in 10.0 mi West 5.8 mph - N/A   Scattered Clouds
7:48 PM 62.6 °F - 44.6 °F 52% 30.17 in 10.0 mi SW 5.8 mph - N/A   Clear
8:46 PM 59.0 °F - 46.4 °F 63% 29.99 in 10.0 mi WSW 4.6 mph - N/A   Clear
9:48 PM 57.2 °F - 46.4 °F 67% 30.20 in 10.0 mi Calm Calm - N/A   Clear
10:49 PM 55.4 °F - 44.6 °F 67% 30.20 in 10.0 mi Calm Calm - N/A   Clear
11:52 PM 53.6 °F - 44.6 °F 72% 29.99 in 10.0 mi Calm Calm - N/A   Clear